Location: Stockholm
(59.3330°N, 18.0500°E)
Time: 01:01:26
(UTC+02:00)

NOAA 18 - Pass Details

Date: 03 April 2023
Orbit: 838 x 860 km, 98.9° (Epoch: 02 June)

Event Time Altitude Azimuth Distance (km) Brightness Sun altitude
Exits shadow 22:42:14 29° 188° (S) 1,529 6.1 -20.3°
Maximum altitude 22:45:02 60° 257° (WSW) 985 5.6 -20.5°
Drops below altitude 10° 22:50:33 10° 338° (NNW) 2,511 8.8 -20.9°
Sets 22:52:59 0° 342° (NNW) 3,451 9.8 -21.1°
